| time (UTC) | temp F | wind direction | speed knots | gust knots | rain 1hr in | rain 24hr in | rain mn in | humidity % | barometer mb |
| 20260507154057 | 58 | 194 | 0.9 | 1.7 | 0.00 | 0.00 | 0.00 | 45 | 1017.2 |
| 20260507153553 | 58 | 188 | 0.0 | 4.3 | 0.00 | 0.00 | 0.00 | 45 | 1017.2 |
| 20260507153054 | 57 | 141 | 0.9 | 4.3 | 0.00 | 0.00 | 0.00 | 44 | 1017.2 |
| 20260507152552 | 57 | 81 | 1.7 | 4.3 | 0.00 | 0.00 | 0.00 | 46 | 1017.2 |
| 20260507152056 | 57 | 179 | 0.9 | 3.5 | 0.00 | 0.00 | 0.00 | 52 | 1017.1 |
| 20260507151554 | 57 | 37 | 0.9 | 3.5 | 0.00 | 0.00 | 0.00 | 45 | 1017.2 |
| 20260507151053 | 57 | 131 | 0.9 | 3.5 | 0.00 | 0.00 | 0.00 | 43 | 1017.0 |
| 20260507150553 | 57 | 207 | 0.9 | 3.5 | 0.00 | 0.00 | 0.00 | 44 | 1017.1 |
| 20260507150052 | 56 | 158 | 0.9 | 3.5 | 0.00 | 0.00 | 0.00 | 43 | 1017.1 |
| 20260507145553 | 57 | 143 | 0.0 | 3.5 | 0.00 | 0.00 | 0.00 | 45 | 1017.1 |
| 20260507145054 | 56 | 31 | 0.9 | 2.6 | 0.00 | 0.00 | 0.00 | 46 | 1017.0 |
| 20260507144600 | 56 | 224 | 0.0 | 2.6 | 0.00 | 0.00 | 0.00 | 47 | 1017.0 |
| 20260507144053 | 56 | 168 | 0.9 | 2.6 | 0.00 | 0.00 | 0.00 | 47 | 1017.0 |
| 20260507143552 | 56 | 141 | 0.0 | 2.6 | 0.00 | 0.00 | 0.00 | 50 | 1017.0 |
| 20260507143109 | 55 | 32 | 0.0 | 2.6 | 0.00 | 0.00 | 0.00 | 48 | 1017.1 |
| 20260507142553 | 55 | 192 | 0.9 | 4.3 | 0.00 | 0.00 | 0.00 | 48 | 1017.1 |
| 20260507142053 | 56 | 32 | 0.9 | 4.3 | 0.00 | 0.00 | 0.00 | 48 | 1017.1 |
| 20260507141613 | 56 | 72 | 0.0 | 1.7 | 0.00 | 0.00 | 0.00 | 48 | 1017.1 |
| 20260507141056 | 56 | 0 | 0.0 | 1.7 | 0.00 | 0.00 | 0.00 | 56 | 1017.2 |
| 20260507140553 | 55 | 169 | 0.0 | 2.6 | 0.00 | 0.00 | 0.00 | 55 | 1017.2 |
| 20260507140054 | 54 | 75 | 0.0 | 2.6 | 0.00 | 0.00 | 0.00 | 55 | 1017.3 |
| 20260507135553 | 54 | 0 | 0.0 | 3.5 | 0.00 | 0.00 | 0.00 | 53 | 1017.3 |
| 20260507135053 | 53 | 0 | 0.9 | 3.5 | 0.00 | 0.00 | 0.00 | 57 | 1017.3 |
| 20260507134556 | 53 | 0 | 0.9 | 3.5 | 0.00 | 0.00 | 0.00 | 59 | 1017.3 |
| 20260507134052 | 54 | 191 | 0.9 | 2.6 | 0.00 | 0.00 | 0.00 | 53 | 1017.2 |
| 20260507133553 | 54 | 0 | 0.0 | 3.5 | 0.00 | 0.00 | 0.00 | 59 | 1017.2 |
| 20260507133104 | 53 | 0 | 0.0 | 3.5 | 0.00 | 0.00 | 0.00 | 59 | 1017.2 |
| 20260507132552 | 53 | 0 | 0.0 | 2.6 | 0.00 | 0.00 | 0.00 | 62 | 1017.2 |
| 20260507132052 | 53 | 0 | 0.0 | 0.0 | 0.00 | 0.00 | 0.00 | 62 | 1017.2 |
| 20260507131610 | 53 | 0 | 0.0 | 0.0 | 0.00 | 0.00 | 0.00 | 60 | 1017.2 |
| 20260507131052 | 53 | 0 | 0.0 | 0.0 | 0.00 | 0.00 | 0.00 | 62 | 1017.3 |
| 20260507130553 | 53 | 0 | 0.0 | 0.0 | 0.00 | 0.00 | 0.00 | 61 | 1017.3 |
| 20260507130101 | 53 | 0 | 0.0 | 0.0 | 0.00 | 0.00 | 0.00 | 64 | 1017.2 |
| 20260507125553 | 52 | 0 | 0.0 | 0.0 | 0.00 | 0.00 | 0.00 | 62 | 1017.1 |
| 20260507125053 | 52 | 0 | 0.0 | 0.0 | 0.00 | 0.00 | 0.00 | 63 | 1017.2 |
| 20260507124553 | 52 | 0 | 0.0 | 0.0 | 0.00 | 0.00 | 0.00 | 66 | 1017.2 |
| 20260507124053 | 51 | 0 | 0.0 | 0.0 | 0.00 | 0.00 | 0.00 | 68 | 1017.3 |
| 20260507123553 | 51 | 0 | 0.0 | 0.0 | 0.00 | 0.00 | 0.00 | 69 | 1017.3 |
| 20260507123111 | 50 | 0 | 0.0 | 0.0 | 0.00 | 0.00 | 0.00 | 71 | 1017.3 |
| 20260507122553 | 50 | 0 | 0.0 | 0.0 | 0.00 | 0.00 | 0.00 | 70 | 1017.3 |
| 20260507122056 | 50 | 0 | 0.0 | 0.0 | 0.00 | 0.00 | 0.00 | 70 | 1017.3 |
| 20260507121557 | 50 | 0 | 0.0 | 0.0 | 0.00 | 0.00 | 0.00 | 70 | 1017.3 |
| 20260507121053 | 49 | 0 | 0.0 | 0.0 | 0.00 | 0.00 | 0.00 | 72 | 1017.5 |
| 20260507120552 | 49 | 0 | 0.0 | 0.0 | 0.00 | 0.00 | 0.00 | 78 | 1017.2 |
| 20260507120057 | 48 | 0 | 0.0 | 0.0 | 0.00 | 0.00 | 0.00 | 80 | 1017.2 |
| 20260507115553 | 47 | 0 | 0.0 | 0.0 | 0.00 | 0.00 | 0.00 | 81 | 1017.2 |
| 20260507115053 | 45 | 0 | 0.0 | 0.0 | 0.00 | 0.00 | 0.00 | 82 | 1017.2 |
| 20260507114601 | 44 | 0 | 0.0 | 0.0 | 0.00 | 0.00 | 0.00 | 84 | 1017.2 |
| 20260507114054 | 43 | 0 | 0.0 | 0.0 | 0.00 | 0.00 | 0.00 | 86 | 1017.3 |
| 20260507113552 | 43 | 0 | 0.0 | 0.0 | 0.00 | 0.00 | 0.00 | 87 | 1017.2 |
| 20260507113055 | 42 | 0 | 0.0 | 0.0 | 0.00 | 0.00 | 0.00 | 90 | 1017.2 |
| 20260507112553 | 41 | 0 | 0.0 | 0.0 | 0.00 | 0.00 | 0.00 | 92 | 1017.2 |
| 20260507112053 | 40 | 0 | 0.0 | 0.0 | 0.00 | 0.00 | 0.00 | 93 | 1017.2 |
| 20260507111553 | 39 | 0 | 0.0 | 0.0 | 0.00 | 0.00 | 0.00 | 94 | 1017.2 |
| 20260507111052 | 38 | 0 | 0.0 | 0.0 | 0.00 | 0.00 | 0.00 | 93 | 1017.1 |
| 20260507110553 | 37 | 0 | 0.0 | 0.0 | 0.00 | 0.00 | 0.00 | 93 | 1017.1 |
| 20260507110057 | 37 | 0 | 0.0 | 0.0 | 0.00 | 0.00 | 0.00 | 93 | 1017.0 |
| 20260507105552 | 37 | 0 | 0.0 | 0.0 | 0.00 | 0.00 | 0.00 | 93 | 1016.8 |
| 20260507105052 | 37 | 0 | 0.0 | 0.0 | 0.00 | 0.00 | 0.00 | 93 | 1016.8 |
| 20260507104604 | 37 | 0 | 0.0 | 0.0 | 0.00 | 0.00 | 0.00 | 93 | 1016.7 |
| 20260507104056 | 37 | 0 | 0.0 | 0.0 | 0.00 | 0.00 | 0.00 | 93 | 1016.6 |
| 20260507103555 | 37 | 0 | 0.0 | 0.0 | 0.00 | 0.00 | 0.00 | 93 | 1016.7 |
| 20260507103055 | 37 | 0 | 0.0 | 0.0 | 0.00 | 0.00 | 0.00 | 93 | 1016.6 |
| 20260507102552 | 37 | 0 | 0.0 | 0.0 | 0.00 | 0.00 | 0.00 | 93 | 1016.5 |
| 20260507102054 | 38 | 0 | 0.0 | 0.0 | 0.00 | 0.00 | 0.00 | 93 | 1016.6 |
| 20260507101553 | 38 | 0 | 0.0 | 0.0 | 0.00 | 0.00 | 0.00 | 93 | 1016.6 |
| 20260507101056 | 38 | 0 | 0.0 | 0.0 | 0.00 | 0.00 | 0.00 | 93 | 1016.7 |
| 20260507100552 | 38 | 0 | 0.0 | 0.0 | 0.00 | 0.00 | 0.00 | 93 | 1016.7 |
| 20260507100100 | 38 | 0 | 0.0 | 0.0 | 0.00 | 0.00 | 0.00 | 93 | 1016.6 |
| 20260507095553 | 38 | 0 | 0.0 | 0.0 | 0.00 | 0.00 | 0.00 | 93 | 1016.5 |
| 20260507095053 | 38 | 0 | 0.0 | 0.0 | 0.00 | 0.00 | 0.00 | 93 | 1016.5 |
| 20260507094555 | 38 | 0 | 0.0 | 0.0 | 0.00 | 0.00 | 0.00 | 93 | 1016.5 |
| 20260507094052 | 38 | 0 | 0.0 | 0.0 | 0.00 | 0.00 | 0.00 | 93 | 1016.6 |
| 20260507093553 | 38 | 0 | 0.0 | 0.0 | 0.00 | 0.00 | 0.00 | 93 | 1016.6 |
| 20260507093054 | 38 | 0 | 0.0 | 0.0 | 0.00 | 0.00 | 0.00 | 93 | 1016.6 |
| 20260507092552 | 38 | 0 | 0.0 | 0.0 | 0.00 | 0.00 | 0.00 | 92 | 1016.5 |
| 20260507092052 | 39 | 0 | 0.0 | 0.0 | 0.00 | 0.00 | 0.00 | 92 | 1016.5 |
| 20260507091553 | 39 | 0 | 0.0 | 0.0 | 0.00 | 0.00 | 0.00 | 92 | 1016.5 |
| 20260507091053 | 39 | 0 | 0.0 | 0.0 | 0.00 | 0.00 | 0.00 | 92 | 1016.4 |
| 20260507090553 | 39 | 0 | 0.0 | 0.0 | 0.00 | 0.00 | 0.00 | 92 | 1016.4 |
| 20260507090100 | 39 | 0 | 0.0 | 0.0 | 0.00 | 0.00 | 0.00 | 92 | 1016.4 |
| 20260507085553 | 39 | 0 | 0.0 | 0.0 | 0.00 | 0.01 | 0.00 | 92 | 1016.4 |
| 20260507085054 | 39 | 0 | 0.0 | 0.0 | 0.00 | 0.01 | 0.00 | 92 | 1016.4 |
| 20260507084555 | 39 | 0 | 0.0 | 0.0 | 0.00 | 0.01 | 0.00 | 92 | 1016.2 |
| 20260507084054 | 39 | 0 | 0.0 | 0.0 | 0.00 | 0.01 | 0.00 | 92 | 1016.1 |
| 20260507083558 | 39 | 0 | 0.0 | 0.0 | 0.00 | 0.01 | 0.00 | 92 | 1016.2 |
| 20260507083057 | 39 | 0 | 0.0 | 0.0 | 0.00 | 0.01 | 0.00 | 92 | 1016.3 |
| 20260507082551 | 40 | 0 | 0.0 | 0.0 | 0.00 | 0.01 | 0.00 | 92 | 1016.2 |
| 20260507082053 | 40 | 0 | 0.0 | 0.0 | 0.00 | 0.01 | 0.00 | 92 | 1016.1 |
| 20260507081556 | 40 | 0 | 0.0 | 0.0 | 0.00 | 0.01 | 0.00 | 92 | 1016.2 |
| 20260507081054 | 40 | 0 | 0.0 | 0.0 | 0.00 | 0.01 | 0.00 | 92 | 1016.0 |
| 20260507080556 | 40 | 0 | 0.0 | 0.0 | 0.00 | 0.01 | 0.00 | 92 | 1016.1 |
| 20260507080112 | 40 | 0 | 0.0 | 0.0 | 0.00 | 0.01 | 0.00 | 92 | 1016.1 |
| 20260507075553 | 40 | 0 | 0.0 | 0.0 | 0.00 | 0.07 | 0.00 | 92 | 1016.2 |
| 20260507075052 | 40 | 0 | 0.0 | 0.0 | 0.00 | 0.07 | 0.00 | 92 | 1016.1 |
| 20260507074556 | 40 | 0 | 0.0 | 0.0 | 0.00 | 0.07 | 0.00 | 92 | 1016.1 |
| 20260507074052 | 40 | 0 | 0.0 | 0.0 | 0.00 | 0.07 | 0.00 | 92 | 1016.1 |
| 20260507073556 | 41 | 0 | 0.0 | 0.0 | 0.00 | 0.07 | 0.00 | 92 | 1016.1 |
| 20260507073054 | 41 | 0 | 0.0 | 0.0 | 0.00 | 0.07 | 0.00 | 92 | 1016.1 |
| 20260507072557 | 41 | 0 | 0.0 | 0.0 | 0.00 | 0.07 | 0.00 | 92 | 1016.2 |
| 20260507072051 | 41 | 0 | 0.0 | 0.0 | 0.00 | 0.07 | 0.00 | 91 | 1016.1 |
| 20260507071554 | 41 | 0 | 0.0 | 0.0 | 0.00 | 0.07 | 0.00 | 91 | 1016.2 |
| 20260507071051 | 41 | 0 | 0.0 | 0.0 | 0.00 | 0.07 | 0.00 | 91 | 1016.1 |
| 20260507070552 | 41 | 0 | 0.0 | 0.0 | 0.00 | 0.07 | 0.00 | 91 | 1016.1 |
| 20260507070104 | 41 | 0 | 0.0 | 0.0 | 0.00 | 0.07 | 0.00 | 91 | 1016.1 |
| 20260507065559 | 42 | 0 | 0.0 | 0.0 | 0.00 | 0.17 | 0.00 | 91 | 1016.2 |
| 20260507065055 | 42 | 0 | 0.0 | 0.0 | 0.00 | 0.17 | 0.00 | 91 | 1016.1 |
| 20260507064629 | 42 | 0 | 0.0 | 0.0 | 0.00 | 0.17 | 0.00 | 91 | 1016.2 |
| 20260507064054 | 42 | 0 | 0.0 | 0.0 | 0.00 | 0.17 | 0.00 | 91 | 1016.1 |
| 20260507063554 | 42 | 0 | 0.0 | 0.0 | 0.00 | 0.17 | 0.00 | 91 | 1016.2 |
| 20260507063109 | 42 | 0 | 0.0 | 0.0 | 0.00 | 0.17 | 0.00 | 91 | 1016.3 |
| 20260507062552 | 42 | 0 | 0.0 | 0.0 | 0.00 | 0.17 | 0.00 | 91 | 1016.3 |
| 20260507062052 | 42 | 0 | 0.0 | 0.0 | 0.00 | 0.17 | 0.00 | 90 | 1016.4 |
| 20260507061555 | 42 | 0 | 0.0 | 0.0 | 0.00 | 0.17 | 0.00 | 90 | 1016.4 |
| 20260507061051 | 42 | 0 | 0.0 | 0.0 | 0.00 | 0.17 | 0.00 | 90 | 1016.4 |
| 20260507060552 | 42 | 0 | 0.0 | 0.0 | 0.00 | 0.17 | 0.00 | 90 | 1016.2 |
| 20260507060111 | 43 | 0 | 0.0 | 0.0 | 0.00 | 0.17 | 0.00 | 90 | 1016.3 |
| 20260507055552 | 43 | 0 | 0.0 | 0.0 | 0.00 | 0.31 | 0.00 | 89 | 1016.2 |
| 20260507055054 | 43 | 0 | 0.0 | 0.0 | 0.00 | 0.31 | 0.00 | 89 | 1016.3 |
| 20260507054602 | 43 | 0 | 0.0 | 0.0 | 0.00 | 0.31 | 0.00 | 89 | 1016.4 |
| 20260507054053 | 43 | 0 | 0.0 | 0.0 | 0.00 | 0.31 | 0.00 | 89 | 1016.4 |
| 20260507053552 | 43 | 0 | 0.0 | 0.0 | 0.00 | 0.31 | 0.00 | 89 | 1016.4 |
| 20260507053110 | 43 | 0 | 0.0 | 0.0 | 0.00 | 0.31 | 0.00 | 89 | 1016.4 |
| 20260507052554 | 43 | 0 | 0.0 | 0.0 | 0.00 | 0.31 | 0.00 | 89 | 1016.5 |
| 20260507052053 | 44 | 0 | 0.0 | 0.0 | 0.00 | 0.31 | 0.00 | 89 | 1016.5 |
| 20260507051605 | 44 | 0 | 0.0 | 0.0 | 0.00 | 0.31 | 0.00 | 89 | 1016.4 |
| 20260507051054 | 44 | 0 | 0.0 | 0.0 | 0.00 | 0.31 | 0.00 | 89 | 1016.3 |
| 20260507050552 | 44 | 0 | 0.0 | 0.0 | 0.00 | 0.31 | 0.00 | 88 | 1016.3 |
| 20260507050057 | 44 | 0 | 0.0 | 0.0 | 0.00 | 0.31 | 0.00 | 88 | 1016.4 |
| 20260507045552 | 44 | 0 | 0.0 | 0.0 | 0.00 | 0.47 | 0.00 | 88 | 1016.5 |
| 20260507045051 | 44 | 0 | 0.0 | 0.0 | 0.00 | 0.47 | 0.00 | 88 | 1016.5 |
| 20260507044628 | 44 | 0 | 0.0 | 0.0 | 0.00 | 0.47 | 0.00 | 88 | 1016.4 |
| 20260507044056 | 44 | 0 | 0.0 | 0.0 | 0.00 | 0.47 | 0.00 | 88 | 1016.5 |
| 20260507043554 | 44 | 0 | 0.0 | 0.0 | 0.00 | 0.47 | 0.00 | 87 | 1016.5 |
| 20260507043058 | 45 | 0 | 0.0 | 0.0 | 0.00 | 0.47 | 0.00 | 87 | 1016.5 |
| 20260507042557 | 45 | 0 | 0.0 | 0.0 | 0.00 | 0.47 | 0.00 | 87 | 1016.5 |
| 20260507042052 | 45 | 0 | 0.0 | 0.0 | 0.00 | 0.47 | 0.00 | 87 | 1016.4 |
| 20260507041559 | 45 | 0 | 0.0 | 0.0 | 0.00 | 0.47 | 0.00 | 87 | 1016.4 |
| 20260507041053 | 45 | 0 | 0.0 | 0.0 | 0.00 | 0.47 | 0.00 | 87 | 1016.5 |
| 20260507040553 | 45 | 0 | 0.0 | 0.0 | 0.00 | 0.47 | 0.00 | 87 | 1016.4 |
| 20260507040057 | 46 | 0 | 0.0 | 0.0 | 0.00 | 0.47 | 0.00 | 87 | 1016.4 |
| 20260507035552 | 46 | 0 | 0.0 | 0.0 | 0.00 | 0.51 | 0.47 | 87 | 1016.4 |
| 20260507035052 | 46 | 0 | 0.0 | 0.0 | 0.00 | 0.51 | 0.47 | 87 | 1016.5 |
| 20260507034556 | 46 | 0 | 0.0 | 0.0 | 0.00 | 0.51 | 0.47 | 87 | 1016.4 |
| 20260507034055 | 46 | 0 | 0.0 | 0.0 | 0.00 | 0.51 | 0.47 | 87 | 1016.4 |
| 20260507033553 | 47 | 0 | 0.0 | 0.0 | 0.00 | 0.51 | 0.47 | 87 | 1016.4 |
| 20260507033055 | 47 | 0 | 0.0 | 0.0 | 0.00 | 0.51 | 0.47 | 87 | 1016.5 |
| 20260507032554 | 46 | 0 | 0.0 | 0.0 | 0.00 | 0.51 | 0.47 | 87 | 1016.4 |
| 20260507032052 | 46 | 0 | 0.0 | 0.0 | 0.00 | 0.51 | 0.47 | 87 | 1016.3 |
| 20260507031556 | 46 | 0 | 0.0 | 0.0 | 0.00 | 0.51 | 0.47 | 87 | 1016.4 |
| 20260507031053 | 46 | 0 | 0.0 | 0.0 | 0.00 | 0.51 | 0.47 | 87 | 1016.5 |
| 20260507030553 | 46 | 0 | 0.0 | 0.0 | 0.00 | 0.51 | 0.47 | 87 | 1016.5 |
| 20260507030056 | 46 | 0 | 0.0 | 0.0 | 0.00 | 0.51 | 0.47 | 87 | 1016.5 |
| 20260507025554 | 46 | 0 | 0.0 | 0.0 | 0.00 | 0.52 | 0.47 | 87 | 1016.5 |
| 20260507025053 | 46 | 0 | 0.0 | 0.0 | 0.00 | 0.52 | 0.47 | 86 | 1016.5 |
| 20260507024553 | 46 | 0 | 0.0 | 0.0 | 0.00 | 0.52 | 0.47 | 85 | 1016.5 |
| 20260507024052 | 46 | 0 | 0.0 | 0.0 | 0.00 | 0.52 | 0.47 | 85 | 1016.4 |
| 20260507023552 | 46 | 0 | 0.0 | 0.0 | 0.00 | 0.52 | 0.47 | 85 | 1016.4 |
| 20260507023056 | 47 | 0 | 0.0 | 0.0 | 0.00 | 0.52 | 0.47 | 85 | 1016.3 |
| 20260507022553 | 47 | 0 | 0.0 | 0.0 | 0.00 | 0.52 | 0.47 | 85 | 1016.3 |
| 20260507022055 | 47 | 0 | 0.0 | 0.0 | 0.00 | 0.52 | 0.47 | 84 | 1016.2 |
| 20260507021557 | 47 | 0 | 0.0 | 0.0 | 0.00 | 0.52 | 0.47 | 84 | 1016.4 |
| 20260507021051 | 48 | 0 | 0.0 | 0.0 | 0.00 | 0.52 | 0.47 | 83 | 1016.3 |
| 20260507020555 | 48 | 0 | 0.0 | 0.0 | 0.00 | 0.52 | 0.47 | 83 | 1016.2 |
| 20260507020115 | 48 | 0 | 0.0 | 0.0 | 0.00 | 0.52 | 0.47 | 83 | 1016.2 |
| 20260507015551 | 48 | 0 | 0.0 | 0.0 | 0.00 | 0.60 | 0.47 | 83 | 1016.1 |
| 20260507015053 | 48 | 0 | 0.0 | 0.0 | 0.00 | 0.60 | 0.47 | 83 | 1016.1 |
| 20260507014559 | 48 | 0 | 0.0 | 0.0 | 0.00 | 0.60 | 0.47 | 82 | 1016.1 |
| 20260507014055 | 49 | 0 | 0.0 | 0.0 | 0.00 | 0.60 | 0.47 | 82 | 1016.1 |
| 20260507013553 | 49 | 0 | 0.0 | 0.0 | 0.00 | 0.60 | 0.47 | 81 | 1015.9 |
| 20260507013055 | 49 | 0 | 0.0 | 0.0 | 0.00 | 0.60 | 0.47 | 80 | 1015.8 |
| 20260507012552 | 49 | 0 | 0.0 | 0.0 | 0.00 | 0.60 | 0.47 | 79 | 1015.7 |
| 20260507012052 | 50 | 0 | 0.0 | 0.0 | 0.00 | 0.60 | 0.47 | 78 | 1015.5 |
| 20260507011553 | 50 | 0 | 0.0 | 0.0 | 0.00 | 0.60 | 0.47 | 78 | 1015.6 |
| 20260507011054 | 50 | 0 | 0.0 | 0.0 | 0.00 | 0.60 | 0.47 | 76 | 1015.5 |
| 20260507010552 | 51 | 0 | 0.0 | 0.0 | 0.00 | 0.60 | 0.47 | 75 | 1015.4 |
| 20260507010106 | 51 | 0 | 0.0 | 0.0 | 0.00 | 0.60 | 0.47 | 75 | 1015.4 |
| 20260507005555 | 52 | 0 | 0.0 | 0.0 | 0.00 | 0.72 | 0.47 | 75 | 1015.5 |
| 20260507005052 | 52 | 0 | 0.0 | 0.0 | 0.00 | 0.72 | 0.47 | 73 | 1015.5 |
| 20260507004557 | 52 | 0 | 0.0 | 0.0 | 0.00 | 0.72 | 0.47 | 73 | 1015.5 |
| 20260507004053 | 52 | 0 | 0.0 | 0.0 | 0.00 | 0.72 | 0.47 | 73 | 1015.4 |
| 20260507003553 | 53 | 0 | 0.0 | 0.0 | 0.00 | 0.72 | 0.47 | 74 | 1015.4 |
| 20260507003056 | 53 | 0 | 0.0 | 0.0 | 0.00 | 0.72 | 0.47 | 70 | 1015.4 |
| 20260507002552 | 53 | 0 | 0.0 | 0.0 | 0.00 | 0.72 | 0.47 | 70 | 1015.3 |
| 20260507002054 | 53 | 0 | 0.0 | 0.0 | 0.00 | 0.72 | 0.47 | 68 | 1015.4 |
| 20260507001558 | 53 | 0 | 0.0 | 0.0 | 0.00 | 0.72 | 0.47 | 68 | 1015.1 |
| 20260507001053 | 53 | 0 | 0.0 | 0.0 | 0.00 | 0.72 | 0.47 | 67 | 1015.2 |
| 20260507000555 | 54 | 0 | 0.0 | 0.0 | 0.00 | 0.72 | 0.47 | 68 | 1015.1 |
| 20260507000054 | 54 | 0 | 0.0 | 0.0 | 0.00 | 0.72 | 0.47 | 68 | 1015.0 |
| 20260506235551 | 54 | 0 | 0.0 | 0.9 | 0.00 | 0.76 | 0.47 | 70 | 1015.1 |
| 20260506235057 | 54 | 0 | 0.0 | 0.9 | 0.00 | 0.76 | 0.47 | 70 | 1015.1 |
| 20260506234600 | 55 | 0 | 0.0 | 0.0 | 0.00 | 0.76 | 0.47 | 69 | 1014.8 |
| 20260506234054 | 55 | 0 | 0.0 | 0.0 | 0.00 | 0.76 | 0.47 | 69 | 1014.9 |
| 20260506233556 | 55 | 0 | 0.0 | 0.0 | 0.00 | 0.76 | 0.47 | 68 | 1014.7 |
| 20260506233058 | 55 | 196 | 0.0 | 0.0 | 0.00 | 0.76 | 0.47 | 65 | 1014.9 |
| 20260506232554 | 55 | 0 | 0.0 | 1.7 | 0.00 | 0.76 | 0.47 | 66 | 1014.8 |
| 20260506232052 | 55 | 0 | 0.0 | 1.7 | 0.00 | 0.76 | 0.47 | 66 | 1014.9 |
| 20260506231608 | 55 | 0 | 0.0 | 1.7 | 0.00 | 0.76 | 0.47 | 65 | 1014.7 |
| 20260506231053 | 55 | 174 | 0.0 | 0.9 | 0.00 | 0.76 | 0.47 | 69 | 1014.6 |
| 20260506230550 | 55 | 0 | 0.0 | 0.0 | 0.00 | 0.76 | 0.47 | 67 | 1014.5 |
| 20260506230121 | 56 | 0 | 0.0 | 0.0 | 0.00 | 0.76 | 0.47 | 67 | 1014.6 |
| 20260506225553 | 56 | 0 | 0.0 | 0.0 | 0.00 | 0.77 | 0.47 | 66 | 1014.6 |
| 20260506225055 | 56 | 0 | 0.0 | 0.0 | 0.00 | 0.77 | 0.47 | 67 | 1014.6 |
| 20260506224553 | 57 | 0 | 0.0 | 0.0 | 0.00 | 0.77 | 0.47 | 62 | 1014.7 |
| 20260506224051 | 57 | 0 | 0.0 | 0.0 | 0.00 | 0.77 | 0.47 | 68 | 1014.6 |
| 20260506223551 | 57 | 0 | 0.0 | 0.0 | 0.00 | 0.77 | 0.47 | 62 | 1014.5 |
| 20260506223057 | 57 | 0 | 0.0 | 0.0 | 0.00 | 0.77 | 0.47 | 59 | 1014.6 |
| 20260506222552 | 58 | 0 | 0.0 | 0.0 | 0.00 | 0.77 | 0.47 | 63 | 1014.6 |
| 20260506222055 | 58 | 0 | 0.0 | 0.0 | 0.00 | 0.77 | 0.47 | 63 | 1014.9 |
| 20260506221615 | 58 | 0 | 0.0 | 1.7 | 0.00 | 0.77 | 0.47 | 65 | 1014.8 |
| 20260506221052 | 58 | 0 | 0.0 | 1.7 | 0.00 | 0.77 | 0.47 | 60 | 1014.9 |
| 20260506220552 | 58 | 188 | 0.0 | 0.0 | 0.00 | 0.77 | 0.47 | 63 | 1014.9 |
| 20260506220129 | 58 | 0 | 0.0 | 0.0 | 0.00 | 0.77 | 0.47 | 63 | 1015.1 |
| 20260506215552 | 58 | 0 | 0.0 | 0.0 | 0.00 | 0.79 | 0.47 | 66 | 1015.1 |
| 20260506215052 | 58 | 0 | 0.0 | 1.7 | 0.00 | 0.79 | 0.47 | 67 | 1015.1 |
| 20260506214558 | 57 | 0 | 0.0 | 1.7 | 0.00 | 0.79 | 0.47 | 64 | 1015.1 |
| 20260506214053 | 58 | 0 | 0.0 | 1.7 | 0.00 | 0.79 | 0.47 | 59 | 1015.0 |
| 20260506213552 | 57 | 0 | 0.0 | 0.9 | 0.00 | 0.79 | 0.47 | 58 | 1015.0 |
| 20260506213109 | 58 | 229 | 0.0 | 0.0 | 0.00 | 0.79 | 0.47 | 61 | 1014.8 |
| 20260506212552 | 58 | 0 | 0.0 | 0.0 | 0.00 | 0.79 | 0.47 | 61 | 1014.7 |
| 20260506212052 | 58 | 0 | 0.0 | 0.0 | 0.00 | 0.79 | 0.47 | 64 | 1014.9 |
| 20260506211555 | 58 | 0 | 0.0 | 0.0 | 0.00 | 0.79 | 0.47 | 59 | 1014.9 |
| 20260506211051 | 58 | 0 | 0.0 | 0.9 | 0.00 | 0.79 | 0.47 | 63 | 1014.7 |
| 20260506210553 | 58 | 0 | 0.0 | 0.9 | 0.00 | 0.79 | 0.47 | 56 | 1014.6 |
| 20260506210105 | 59 | 171 | 0.0 | 0.9 | 0.00 | 0.79 | 0.47 | 59 | 1014.5 |
| 20260506205552 | 59 | 205 | 0.0 | 0.0 | 0.00 | 0.87 | 0.47 | 60 | 1014.4 |
| 20260506205052 | 59 | 0 | 0.0 | 3.5 | 0.00 | 0.87 | 0.47 | 61 | 1014.6 |
| 20260506204606 | 59 | 0 | 0.0 | 3.5 | 0.00 | 0.87 | 0.47 | 64 | 1014.5 |
| 20260506204051 | 59 | 0 | 0.0 | 1.7 | 0.00 | 0.87 | 0.47 | 59 | 1014.4 |
| 20260506203552 | 59 | 0 | 0.0 | 3.5 | 0.00 | 0.87 | 0.47 | 65 | 1014.6 |
| 20260506203057 | 58 | 0 | 0.0 | 3.5 | 0.00 | 0.87 | 0.47 | 62 | 1014.4 |
| 20260506202552 | 58 | 0 | 0.0 | 2.6 | 0.00 | 0.87 | 0.47 | 61 | 1014.6 |
| 20260506202054 | 58 | 0 | 0.0 | 2.6 | 0.00 | 0.87 | 0.47 | 59 | 1014.7 |
| 20260506201557 | 58 | 0 | 0.0 | 0.0 | 0.00 | 0.87 | 0.47 | 61 | 1014.7 |
| 20260506201055 | 58 | 0 | 0.0 | 0.0 | 0.00 | 0.87 | 0.47 | 63 | 1014.7 |
| 20260506200552 | 58 | 0 | 0.0 | 0.0 | 0.00 | 0.87 | 0.47 | 60 | 1014.6 |
| 20260506200053 | 58 | 0 | 0.0 | 0.0 | 0.00 | 0.87 | 0.47 | 63 | 1014.8 |
| 20260506195557 | 58 | 0 | 0.0 | 0.0 | 0.00 | 1.01 | 0.47 | 65 | 1014.7 |
| 20260506195052 | 58 | 0 | 0.0 | 0.9 | 0.00 | 1.01 | 0.47 | 67 | 1014.9 |
| 20260506194600 | 58 | 0 | 0.0 | 0.9 | 0.00 | 1.01 | 0.47 | 61 | 1014.8 |
| 20260506194054 | 58 | 0 | 0.0 | 0.9 | 0.00 | 1.01 | 0.47 | 63 | 1014.7 |
| 20260506193552 | 58 | 210 | 0.0 | 2.6 | 0.00 | 1.01 | 0.47 | 63 | 1014.7 |
| 20260506193054 | 58 | 207 | 0.0 | 2.6 | 0.00 | 1.01 | 0.47 | 61 | 1014.6 |
| 20260506192552 | 58 | 0 | 0.9 | 2.6 | 0.00 | 1.01 | 0.47 | 60 | 1014.6 |
| 20260506192052 | 58 | 181 | 0.0 | 2.6 | 0.00 | 1.01 | 0.47 | 60 | 1014.4 |
| 20260506191604 | 59 | 0 | 0.9 | 2.6 | 0.00 | 1.01 | 0.47 | 62 | 1014.2 |
| 20260506191052 | 59 | 0 | 0.0 | 1.7 | 0.00 | 1.01 | 0.47 | 59 | 1014.3 |
| 20260506190552 | 59 | 0 | 0.0 | 2.6 | 0.00 | 1.01 | 0.47 | 64 | 1014.2 |
| 20260506190055 | 60 | 0 | 0.0 | 2.6 | 0.00 | 1.01 | 0.47 | 64 | 1014.2 |
| 20260506185551 | 60 | 211 | 0.0 | 2.6 | 0.00 | 1.02 | 0.47 | 62 | 1014.2 |
| 20260506185051 | 60 | 110 | 0.0 | 3.5 | 0.00 | 1.02 | 0.47 | 57 | 1014.2 |
| 20260506184622 | 61 | 0 | 0.0 | 4.3 | 0.00 | 1.02 | 0.47 | 54 | 1014.1 |
| 20260506184053 | 61 | 203 | 0.0 | 4.3 | 0.00 | 1.02 | 0.47 | 60 | 1014.2 |
| 20260506183558 | 61 | 0 | 0.0 | 4.3 | 0.00 | 1.02 | 0.47 | 60 | 1014.1 |
| 20260506183102 | 61 | 77 | 0.9 | 3.5 | 0.00 | 1.02 | 0.47 | 54 | 1014.1 |
| 20260506182552 | 61 | 198 | 0.0 | 4.3 | 0.00 | 1.02 | 0.47 | 54 | 1014.1 |
| 20260506182052 | 61 | 207 | 0.0 | 4.3 | 0.00 | 1.02 | 0.47 | 54 | 1014.1 |
| 20260506181559 | 62 | 142 | 0.9 | 4.3 | 0.00 | 1.02 | 0.47 | 60 | 1014.0 |
| 20260506181052 | 62 | 191 | 0.0 | 2.6 | 0.00 | 1.02 | 0.47 | 54 | 1014.2 |
| 20260506180552 | 61 | 216 | 0.0 | 5.2 | 0.00 | 1.02 | 0.47 | 52 | 1014.1 |
| 20260506180057 | 61 | 0 | 0.9 | 5.2 | 0.00 | 1.02 | 0.47 | 50 | 1014.3 |
| 20260506175552 | 61 | 197 | 0.9 | 3.5 | 0.00 | 1.02 | 0.47 | 51 | 1014.3 |
| 20260506175051 | 61 | 0 | 0.0 | 4.3 | 0.00 | 1.02 | 0.47 | 58 | 1014.4 |
| 20260506174552 | 61 | 198 | 1.7 | 4.3 | 0.00 | 1.02 | 0.47 | 51 | 1014.6 |
| 20260506174052 | 62 | 58 | 0.0 | 2.6 | 0.00 | 1.02 | 0.47 | 60 | 1014.5 |
| 20260506173552 | 61 | 77 | 0.9 | 2.6 | 0.00 | 1.02 | 0.47 | 52 | 1014.6 |
| 20260506173100 | 61 | 163 | 0.0 | 1.7 | 0.00 | 1.02 | 0.47 | 59 | 1014.6 |
| 20260506172551 | 60 | 0 | 0.0 | 0.9 | 0.00 | 1.02 | 0.47 | 62 | 1014.6 |
| 20260506172051 | 60 | 0 | 0.0 | 2.6 | 0.00 | 1.02 | 0.47 | 61 | 1014.5 |
| 20260506171607 | 59 | 0 | 0.0 | 2.6 | 0.00 | 1.02 | 0.47 | 67 | 1014.5 |
| 20260506171051 | 59 | 193 | 0.9 | 2.6 | 0.00 | 1.02 | 0.47 | 61 | 1014.6 |
| 20260506170551 | 59 | 181 | 0.9 | 4.3 | 0.00 | 1.02 | 0.47 | 57 | 1014.7 |
| 20260506170059 | 58 | 136 | 0.9 | 4.3 | 0.00 | 1.02 | 0.47 | 58 | 1014.9 |
| 20260506165552 | 58 | 111 | 0.0 | 0.9 | 0.00 | 1.02 | 0.47 | 61 | 1015.0 |
| 20260506165053 | 57 | 0 | 0.0 | 2.6 | 0.00 | 1.02 | 0.47 | 62 | 1014.9 |
| 20260506164554 | 57 | 0 | 0.9 | 2.6 | 0.00 | 1.02 | 0.47 | 62 | 1014.9 |
| 20260506164051 | 58 | 188 | 0.9 | 2.6 | 0.00 | 1.02 | 0.47 | 57 | 1015.1 |
| 20260506163552 | 58 | 55 | 0.9 | 3.5 | 0.00 | 1.02 | 0.47 | 59 | 1015.0 |
| 20260506163106 | 58 | 0 | 0.9 | 3.5 | 0.00 | 1.02 | 0.47 | 60 | 1015.0 |
| 20260506162551 | 58 | 221 | 0.0 | 2.6 | 0.00 | 1.02 | 0.47 | 60 | 1014.8 |
| 20260506162053 | 58 | 179 | 0.9 | 3.5 | 0.00 | 1.02 | 0.47 | 57 | 1014.8 |
| 20260506161557 | 58 | 187 | 0.0 | 4.3 | 0.00 | 1.02 | 0.47 | 60 | 1014.7 |
| 20260506161054 | 57 | 0 | 0.9 | 4.3 | 0.00 | 1.02 | 0.47 | 64 | 1014.9 |
| 20260506160551 | 56 | 249 | 0.9 | 2.6 | 0.00 | 1.02 | 0.47 | 66 | 1014.9 |
| 20260506160109 | 56 | 0 | 0.9 | 3.5 | 0.00 | 1.02 | 0.47 | 66 | 1014.9 |
| 20260506155554 | 55 | 198 | 0.9 | 3.5 | 0.00 | 1.02 | 0.47 | 64 | 1014.9 |
| 20260506155051 | 55 | 226 | 0.0 | 5.2 | 0.00 | 1.02 | 0.47 | 69 | 1014.7 |
| 20260506154559 | 55 | 191 | 0.9 | 5.2 | 0.00 | 1.02 | 0.47 | 69 | 1014.6 |